map of LHR home
Great Circle Mapper logo
LHR - Airport
Location
City:  London, Middlesex, England, United Kingdom
Name:Heathrow
ICAO / IATA:EGLL / LHR

Details
Type:Airport (Aerodrome, Airfield)
Use:Public/Civil, International (customs port of entry)
Latitude:5128'39"N (51.477500)
Longitude:027'41"W (-0.461388)
Datum:WGS 1984
Elevation:83 ft (25 m)
Runways:2
Longest:12799 × 164 ft (3901 × 50 m), paved

Time
Time Zone:UTC+0 (DST+1)
Local Time:

Weather
METAR:EGLL 241050Z 22007KT 190V260 9999 FEW009 SCT014 BKN020 16/14 Q1015 TEMPO BKN014
TAF:EGLL 240502Z 2406/2512 20008KT 9999 SCT012 BKN020
TEMPO 2406/2417 6000 -RADZ BKN010 PROB40
TEMPO 2406/2417 3000 DZ SHRA BKN006
BECMG 2415/2418 27010KT

Related Locations
Nearby:
Farthest:CHT: 11869 mi / 19102 km
Waitangi [Tuuta], Chatham Islands, NZ

Find:

   beyond  
but within

Other Information
Maps:
NOTAMs:
Links:
Sources:

  
flag of United Kingdom
flag of England
  

Sectional Chart

Flight Planning
at skyvector.com

Satellite Image

Google Maps Satellite View

 

Copyright © 2004-2014 Karl L. Swartz. All rights reserved.
The Great Circle Mapper name and logo are trademarks of the Great Circle Mapper.
All other trademarks mentioned herein belong to their respective owners.
Please see credits for attibutions and further copyright information.

  Follow gcmap on Facebook Follow gcmap on Twitter

hCard Microformat

Geo Microformat